Location: Moscow
(55.7500°N, 37.5830°E)
Time: 11:21:06
(UTC+03:00)

Vanguard 3 - Pass Details

Date: 03 December 2021
Orbit: 508 x 3260 km, 33.3° (Epoch: 19 January)

Event Time Altitude Azimuth Distance (km) Brightness Sun altitude
Rises 02:07:14 0° 184° (S) 7,023 - -50.9°
Reaches altitude 10° 02:15:45 10° 164° (SSE) 6,186 - -50.0°
Exits shadow 02:18:07 12° 157° (SSE) 6,023 11.4 -49.8°
Maximum altitude 02:23:41 14° 140° (SE) 5,795 11.4 -49.2°
Drops below altitude 10° 02:31:16 10° 115° (ESE) 5,899 11.7 -48.5°
Sets 02:38:48 0° 95° (E) 6,489 12.2 -47.6°
